Track COSMOS 2492 (GLONASS) now! COSMOS 2492 (GLONASS) is classified as:
1 39620U 14012A 25170.13128855 -.00000040 00000-0 00000+0 0 9990 2 39620 65.5045 326.2524 0010736 325.2756 34.6556 2.13103128 87508